EST,Max TemperatureF,Mean TemperatureF,Min TemperatureF,Max Dew PointF,MeanDew PointF,Min DewpointF,Max Humidity, Mean Humidity, Min Humidity, Max Sea Level PressureIn, Mean Sea Level PressureIn, Min Sea Level PressureIn, Max VisibilityMiles, Mean VisibilityMiles, Min VisibilityMiles, Max Wind SpeedMPH, Mean Wind SpeedMPH, Max Gust SpeedMPH,PrecipitationIn, CloudCover, Events, WindDirDegrees
2012-12-1,73,60,46,53,50,46,100,71,41,30.36,30.31,30.27,10,9,5,10,2,20,0.00,5,,132
2012-12-2,76,63,49,57,53,49,100,73,46,30.38,30.30,30.25,10,9,6,10,2,15,0.00,4,,248
2012-12-3,76,61,45,58,51,45,100,73,46,30.33,30.28,30.23,10,9,4,10,1,23,0.00,4,,175
2012-12-4,76,62,47,60,50,46,100,71,41,30.35,30.28,30.22,10,6,0,12,2,16,0.00,4,Fog,216
2012-12-5,76,62,48,55,52,48,100,72,43,30.23,30.16,30.10,10,10,6,9,2,14,0.00,3,,289
2012-12-6,65,58,51,56,54,50,100,84,67,30.16,30.12,30.09,10,8,2,15,6,20,0.05,7,Rain,72
2012-12-7,69,59,48,52,47,43,93,70,47,30.12,30.06,29.98,10,10,10,10,4,14,0.00,5,,48
2012-12-8,73,60,46,56,51,45,100,77,53,30.08,30.03,29.99,10,8,2,7,2,9,0.00,6,,120
2012-12-9,75,65,54,61,58,54,100,79,57,30.12,30.06,30.00,10,8,0,10,3,15,0.00,5,Fog,198
2012-12-10,72,63,54,63,58,53,100,81,61,29.96,29.86,29.75,10,8,1,17,5,25,0.12,5,Rain,203
2012-12-11,62,53,44,61,45,34,100,75,50,30.14,29.95,29.81,10,10,9,18,6,25,0.00,6,,318
2012-12-12,48,45,41,45,41,35,100,83,65,30.24,30.18,30.11,10,8,2,14,6,17,0.16,7,Rain,24
2012-12-13,58,47,36,43,40,34,100,76,51,30.35,30.30,30.22,10,10,6,16,7,21,0.00,5,,41
2012-12-14,62,46,30,43,38,30,100,75,49,30.40,30.30,30.21,10,9,7,12,3,30,0.00,0,,41
2012-12-15,63,53,42,51,43,39,100,72,43,30.25,30.16,30.08,10,10,7,20,1,24,0.00,2,,126
2012-12-16,67,59,51,61,55,32,100,89,78,30.07,29.99,29.85,10,6,0,17,4,25,0.29,7,Fog-Rain,161
2012-12-17,61,58,54,59,57,54,100,97,93,29.95,29.82,29.74,10,7,0,15,4,20,0.99,7,Fog-Rain-Thunderstorm,215
2012-12-18,66,51,36,56,44,26,100,62,24,30.04,29.91,29.78,10,9,2,17,6,22,0.00,1,,276
2012-12-19,71,51,31,44,37,30,100,64,28,30.14,30.07,30.03,10,10,9,9,1,13,0.00,0,,199
2012-12-20,69,53,36,63,49,31,92,73,53,30.07,29.85,29.70,10,8,2,23,9,32,0.40,5,Rain,211
2012-12-21,51,44,36,28,19,14,58,40,22,30.16,30.04,29.95,10,10,10,26,16,36,0.00,1,,290
2012-12-22,58,44,29,23,15,10,66,41,15,30.28,30.22,30.17,10,10,10,16,8,22,0.00,0,,296
2012-12-23,58,42,25,34,28,23,92,61,30,30.26,30.18,30.11,10,10,9,99,2,99,0.00,3,,241
2012-12-24,55,49,43,55,48,32,100,77,54,30.08,29.95,29.89,10,5,0,16,3,22,1.05,8,Fog-Rain-Thunderstorm,120
2012-12-25,60,57,53,58,56,52,100,95,90,30.00,29.93,29.75,10,6,0,18,6,23,0.46,8,Fog-Rain,92
2012-12-26,61,50,39,61,44,29,97,77,56,30.00,29.72,29.55,10,8,2,30,16,40,0.93,8,Rain,238
2012-12-27,52,45,38,33,31,29,76,65,48,30.10,30.05,29.99,10,10,10,18,10,26,0.00,4,,295
2012-12-28,53,41,28,43,34,28,100,73,46,30.13,30.04,29.90,10,9,5,9,2,12,0.06,3,Rain,138
2012-12-29,50,44,38,45,38,26,100,80,59,30.22,29.95,29.78,10,8,2,23,11,33,0.35,8,Rain,308
2012-12-30,53,40,27,30,25,22,92,60,28,30.45,30.37,30.24,10,10,10,15,4,20,0.00,1,,294
2012-12-31,60,43,26,44,35,25,100,74,47,30.43,30.33,30.18,10,10,7,14,2,17,0.00,3,,220